Location: Byszew
(52.1813°N, 19.2693°E)
Time: 00:47:47
(UTC+00:00)

Cosmos 1844 - Pass Details

Date: 15 June 2021
Orbit: 823 x 867 km, 70.9° (Epoch: 30 July)

Event Time Altitude Azimuth Distance (km) Brightness Sun altitude
Rises 19:48:38 0° 329° (NNW) 3,372 9.2 -5.4°
Reaches altitude 10° 19:51:07 10° 334° (NNW) 2,436 7.8 -5.6°
Maximum altitude 19:56:37 58° 53° (NE) 961 4.0 -6.1°
Drops below altitude 10° 20:02:07 10° 133° (SE) 2,436 5.4 -6.7°
Enters shadow 20:02:38 - 134° (SE) 2,629 5.6 -6.7°
